BTI9UG EHAM-EETN

Flight info

Callsign BTI9UG
Flight time N/A
Altitude 37000
Route ANDIK M105 OPWOT DCT KOKOR DCT KOSEB DCT NINTA DCT ADAXA DCT LATEG DCT SULUN
Aircraft A319/M-SDE3FGHIRWY/LB1

Departure

Time 2026-04-29 16:36
Airport Amsterdam Airport Schiphol (EHAM)

Arrival

Time N/A
Airport Lennart Meri Tallinn Airport (EETN)
Time Latitude Longitude Altitude Speed Heading
2026-04-29 15:50 52.30442 4.76323 -1 ft 0 kts 238°
2026-04-29 16:15 52.30443 4.76325 -1 ft 1 kts 238°
2026-04-29 16:15 52.30452 4.76349 -1 ft 3 kts 231°
2026-04-29 16:15 52.30466 4.76372 -1 ft 3 kts 211°
2026-04-29 16:15 52.30482 4.76383 -1 ft 3 kts 170°
2026-04-29 16:16 52.30491 4.76379 -1 ft 0 kts 148°
2026-04-29 16:19 52.30488 4.76382 -1 ft 2 kts 148°
2026-04-29 16:19 52.30457 4.76413 -1 ft 9 kts 149°
2026-04-29 16:19 52.30396 4.76474 -1 ft 11 kts 147°
2026-04-29 16:20 52.30334 4.76547 -1 ft 11 kts 126°
2026-04-29 16:20 52.30346 4.76663 -1 ft 11 kts 67°
2026-04-29 16:20 52.30301 4.76738 -1 ft 11 kts 177°
2026-04-29 16:20 52.30244 4.76644 -1 ft 14 kts 238°
2026-04-29 16:21 52.30187 4.76496 -1 ft 16 kts 238°
2026-04-29 16:21 52.30134 4.76336 -1 ft 17 kts 260°
2026-04-29 16:21 52.30173 4.76206 -1 ft 12 kts 261°
2026-04-29 16:21 52.30127 4.76084 -1 ft 13 kts 238°
2026-04-29 16:22 52.30079 4.75957 -1 ft 13 kts 238°
2026-04-29 16:22 52.30030 4.75828 -1 ft 14 kts 238°
2026-04-29 16:22 52.29978 4.75696 -1 ft 14 kts 238°
2026-04-29 16:22 52.29925 4.75560 -1 ft 14 kts 238°
2026-04-29 16:23 52.29871 4.75420 -1 ft 15 kts 238°
2026-04-29 16:23 52.29829 4.75270 -1 ft 15 kts 270°
2026-04-29 16:23 52.29889 4.75109 -1 ft 19 kts 311°
2026-04-29 16:23 52.29977 4.74943 -1 ft 19 kts 311°
2026-04-29 16:24 52.30067 4.74779 0 ft 20 kts 312°
2026-04-29 16:24 52.30151 4.74623 10 ft 16 kts 311°
2026-04-29 16:24 52.30227 4.74483 10 ft 17 kts 310°
2026-04-29 16:24 52.30304 4.74335 5 ft 20 kts 310°
2026-04-29 16:25 52.30389 4.74200 -1 ft 14 kts 341°
2026-04-29 16:25 52.30494 4.74200 -1 ft 17 kts
2026-04-29 16:25 52.30626 4.74212 -1 ft 19 kts
2026-04-29 16:25 52.30762 4.74224 -1 ft 20 kts
2026-04-29 16:26 52.30900 4.74238 -1 ft 20 kts
2026-04-29 16:26 52.31039 4.74251 -1 ft 20 kts
2026-04-29 16:26 52.31179 4.74264 -1 ft 20 kts
2026-04-29 16:26 52.31320 4.74278 -1 ft 20 kts
2026-04-29 16:27 52.31462 4.74289 -1 ft 21 kts
2026-04-29 16:27 52.31605 4.74303 -1 ft 21 kts
2026-04-29 16:27 52.31750 4.74319 -1 ft 21 kts
2026-04-29 16:27 52.31895 4.74332 -1 ft 21 kts
2026-04-29 16:28 52.31984 4.74338 -1 ft 11 kts
2026-04-29 16:28 52.32029 4.74259 -1 ft 11 kts 275°
2026-04-29 16:28 52.32035 4.74129 -1 ft 12 kts 274°
2026-04-29 16:28 52.32040 4.73987 -2 ft 13 kts 272°
2026-04-29 16:29 52.32044 4.73834 -1 ft 13 kts 273°
2026-04-29 16:29 52.32049 4.73683 -1 ft 14 kts 273°
2026-04-29 16:29 52.32055 4.73506 -1 ft 16 kts 273°
2026-04-29 16:29 52.32097 4.73344 -1 ft 17 kts 319°
2026-04-29 16:30 52.32191 4.73212 -1 ft 18 kts 319°
2026-04-29 16:30 52.32288 4.73076 -1 ft 18 kts 319°
2026-04-29 16:30 52.32386 4.72937 -1 ft 19 kts 319°
2026-04-29 16:30 52.32485 4.72799 -1 ft 19 kts 319°
2026-04-29 16:31 52.32586 4.72658 -1 ft 19 kts 319°
2026-04-29 16:31 52.32685 4.72511 -1 ft 19 kts 313°
2026-04-29 16:31 52.32775 4.72344 -1 ft 20 kts 310°
2026-04-29 16:31 52.32865 4.72176 -1 ft 20 kts 311°
2026-04-29 16:32 52.32956 4.72009 -1 ft 20 kts 312°
2026-04-29 16:32 52.33016 4.71896 -1 ft 20 kts 311°
2026-04-29 16:32 52.33138 4.71665 -1 ft 20 kts 301°
2026-04-29 16:32 52.33108 4.71465 -1 ft 20 kts 223°
2026-04-29 16:33 52.32994 4.71299 -1 ft 11 kts 221°
2026-04-29 16:33 52.32934 4.71213 -1 ft 12 kts 221°
2026-04-29 16:33 52.32873 4.71122 -1 ft 12 kts 233°
2026-04-29 16:34 52.32863 4.70983 -2 ft 13 kts 272°
2026-04-29 16:34 52.32872 4.70893 -2 ft 7 kts 313°
2026-04-29 16:34 52.32923 4.70900 -3 ft 11 kts
2026-04-29 16:34 52.32974 4.70902 -3 ft 7 kts
2026-04-29 16:35 52.33055 4.70909 -4 ft 31 kts
2026-04-29 16:35 52.33541 4.70954 -1 ft 105 kts
2026-04-29 16:35 52.34477 4.71043 1 ft 162 kts
2026-04-29 16:35 52.35644 4.71153 524 ft 170 kts
2026-04-29 16:36 52.36809 4.71268 1256 ft 172 kts
2026-04-29 16:36 52.38087 4.71396 1713 ft 193 kts
2026-04-29 16:36 52.39522 4.71544 2133 ft 219 kts
2026-04-29 16:36 52.41133 4.71704 2680 ft 243 kts
2026-04-29 16:37 52.42838 4.71857 3515 ft 253 kts
2026-04-29 16:37 52.44627 4.72016 4374 ft 261 kts
2026-04-29 16:37 52.46485 4.72187 5348 ft 266 kts
2026-04-29 16:37 52.47718 4.72302 5890 ft 271 kts
2026-04-29 16:38 52.50219 4.72540 7072 ft 272 kts
2026-04-29 16:38 52.52107 4.72976 7995 ft 270 kts 22°
2026-04-29 16:38 52.53735 4.74357 8892 ft 267 kts 41°
2026-04-29 16:38 52.54990 4.76588 9791 ft 267 kts 59°
2026-04-29 16:39 52.55730 4.79393 10598 ft 273 kts 73°
2026-04-29 16:39 52.56318 4.82498 10909 ft 296 kts 73°
2026-04-29 16:39 52.56949 4.85863 11150 ft 320 kts 73°
2026-04-29 16:39 52.57628 4.89481 11407 ft 341 kts 72°
2026-04-29 16:40 52.58384 4.93226 12002 ft 348 kts 68°
2026-04-29 16:40 52.59534 4.96753 12705 ft 353 kts 56°
2026-04-29 16:40 52.61041 4.99969 13433 ft 357 kts 52°
2026-04-29 16:40 52.62590 5.03180 14188 ft 359 kts 52°
2026-04-29 16:41 52.64141 5.06419 14845 ft 362 kts 52°
2026-04-29 16:41 52.65703 5.09692 15470 ft 365 kts 52°
2026-04-29 16:41 52.67278 5.12998 16148 ft 367 kts 53°
2026-04-29 16:41 52.68856 5.16318 16809 ft 369 kts 53°
2026-04-29 16:42 52.69928 5.18579 17250 ft 371 kts 53°
2026-04-29 16:42 52.71500 5.21898 17879 ft 374 kts 53°
2026-04-29 16:42 52.73083 5.25321 18510 ft 376 kts 57°
2026-04-29 16:42 52.74360 5.29096 19053 ft 378 kts 66°
2026-04-29 16:43 52.75282 5.33172 19577 ft 381 kts 70°
2026-04-29 16:43 52.76173 5.37303 20086 ft 383 kts 70°
2026-04-29 16:43 52.77070 5.41471 20579 ft 386 kts 70°
2026-04-29 16:43 52.77969 5.45663 21056 ft 389 kts 70°
2026-04-29 16:44 52.78874 5.49890 21528 ft 392 kts 70°
2026-04-29 16:44 52.79790 5.54151 21988 ft 395 kts 70°
2026-04-29 16:44 52.80710 5.58442 22490 ft 397 kts 70°
2026-04-29 16:44 52.81633 5.62756 22964 ft 399 kts 70°
2026-04-29 16:45 52.82560 5.67085 23413 ft 401 kts 70°
2026-04-29 16:45 52.83494 5.71461 23854 ft 404 kts 70°
2026-04-29 16:45 52.84430 5.75854 24224 ft 406 kts 70°
2026-04-29 16:45 52.85370 5.80278 24597 ft 409 kts 70°
2026-04-29 16:46 52.86309 5.84724 24964 ft 411 kts 70°
2026-04-29 16:46 52.87251 5.89205 25314 ft 413 kts 70°
2026-04-29 16:46 52.88194 5.93706 25666 ft 415 kts 70°
2026-04-29 16:46 52.89132 5.98183 26016 ft 417 kts 70°
2026-04-29 16:47 52.90084 6.02734 26353 ft 419 kts 70°
2026-04-29 16:47 52.91036 6.07297 26697 ft 421 kts 70°
2026-04-29 16:47 52.91992 6.11882 27094 ft 421 kts 70°
2026-04-29 16:47 52.92949 6.16488 27432 ft 423 kts 70°
2026-04-29 16:48 52.93907 6.21099 27758 ft 424 kts 70°
2026-04-29 16:48 52.94870 6.25733 28078 ft 426 kts 70°
2026-04-29 16:48 52.95837 6.30386 28394 ft 428 kts 70°
2026-04-29 16:48 52.96804 6.35062 28755 ft 428 kts 70°
2026-04-29 16:49 52.97765 6.39726 29209 ft 427 kts 70°
2026-04-29 16:49 52.98720 6.44384 29679 ft 425 kts 70°
2026-04-29 16:49 52.99666 6.49023 30144 ft 424 kts 70°
2026-04-29 16:49 53.00608 6.53646 30590 ft 422 kts 70°
2026-04-29 16:50 53.01548 6.58260 30996 ft 421 kts 70°
2026-04-29 16:50 53.02482 6.62861 31433 ft 419 kts 69°
2026-04-29 16:50 53.03405 6.67437 31899 ft 416 kts 69°
2026-04-29 16:50 53.04319 6.71988 32341 ft 414 kts 69°
2026-04-29 16:51 53.05231 6.76522 32771 ft 412 kts 69°
2026-04-29 16:51 53.06141 6.81039 33179 ft 411 kts 69°
2026-04-29 16:51 53.07049 6.85537 33569 ft 410 kts 69°
2026-04-29 16:51 53.07954 6.90033 33977 ft 409 kts 69°
2026-04-29 16:52 53.08855 6.94532 34391 ft 408 kts 69°
2026-04-29 16:52 53.09734 6.98943 34735 ft 407 kts 69°
2026-04-29 16:52 53.10622 7.03413 35053 ft 407 kts 69°
2026-04-29 16:52 53.11512 7.07898 35363 ft 407 kts 69°
2026-04-29 16:53 53.12400 7.12383 35667 ft 408 kts 69°
2026-04-29 16:53 53.13287 7.16869 35982 ft 408 kts 69°
2026-04-29 16:53 53.14174 7.21356 36278 ft 408 kts 69°
2026-04-29 16:53 53.15060 7.25851 36552 ft 408 kts 68°
2026-04-29 16:54 53.15942 7.30345 36813 ft 408 kts 68°
2026-04-29 16:54 53.16823 7.34853 37067 ft 409 kts 68°
2026-04-29 16:54 53.17703 7.39352 37301 ft 409 kts 68°
2026-04-29 16:54 53.18589 7.43893 37415 ft 410 kts 68°
2026-04-29 16:55 53.20349 7.52961 37419 ft 411 kts 69°
2026-04-29 16:55 53.22094 7.62049 37439 ft 411 kts 69°
2026-04-29 16:56 53.23848 7.71150 37446 ft 411 kts 68°
2026-04-29 16:56 53.25596 7.80215 37431 ft 410 kts 68°
2026-04-29 16:57 53.27319 7.89247 37433 ft 410 kts 68°
2026-04-29 16:57 53.29045 7.98353 37437 ft 410 kts 69°
2026-04-29 16:58 53.30761 8.07454 37442 ft 411 kts 69°
2026-04-29 16:58 53.32469 8.16578 37444 ft 411 kts 69°
2026-04-29 16:59 53.34376 8.25558 37474 ft 409 kts 65°
2026-04-29 16:59 53.36479 8.34330 37463 ft 408 kts 64°
2026-04-29 17:00 53.38581 8.43169 37458 ft 408 kts 65°
2026-04-29 17:00 53.40757 8.51930 37455 ft 405 kts 58°
2026-04-29 17:01 53.43607 8.60063 37448 ft 404 kts 56°
2026-04-29 17:01 53.46457 8.68128 37441 ft 404 kts 56°
2026-04-29 17:02 53.49326 8.76263 37444 ft 405 kts 56°
2026-04-29 17:02 53.52182 8.84418 37479 ft 405 kts 56°
2026-04-29 17:03 53.55030 8.92588 37474 ft 404 kts 56°
2026-04-29 17:03 53.57872 9.00749 37467 ft 403 kts 56°
2026-04-29 17:04 53.60686 9.08843 37463 ft 403 kts 57°
2026-04-29 17:04 53.63504 9.17023 37466 ft 403 kts 57°
2026-04-29 17:05 53.66313 9.25194 37459 ft 403 kts 57°
2026-04-29 17:05 53.69122 9.33364 37460 ft 403 kts 57°
2026-04-29 17:06 53.71926 9.41547 37503 ft 403 kts 56°
2026-04-29 17:06 53.74723 9.49741 37491 ft 402 kts 57°
2026-04-29 17:07 53.77492 9.57874 37485 ft 402 kts 57°
2026-04-29 17:07 53.80269 9.66062 37485 ft 401 kts 57°
2026-04-29 17:08 53.83032 9.74258 37477 ft 401 kts 57°
2026-04-29 17:08 53.85794 9.82464 37468 ft 401 kts 57°
2026-04-29 17:09 53.88559 9.90691 37474 ft 402 kts 57°
2026-04-29 17:09 53.91315 9.98939 37475 ft 402 kts 57°
2026-04-29 17:10 53.94054 10.07148 37478 ft 402 kts 57°
2026-04-29 17:10 53.96805 10.15425 37485 ft 402 kts 57°
2026-04-29 17:11 53.99543 10.23713 37486 ft 402 kts 57°
2026-04-29 17:11 54.02284 10.32022 37487 ft 402 kts 57°
2026-04-29 17:12 54.05021 10.40331 37475 ft 402 kts 57°
2026-04-29 17:12 54.07292 10.47251 37476 ft 403 kts 57°
2026-04-29 17:13 54.10475 10.57002 37478 ft 403 kts 57°
2026-04-29 17:13 54.13193 10.65355 37494 ft 403 kts 57°
2026-04-29 17:14 54.15902 10.73719 37494 ft 403 kts 57°
2026-04-29 17:14 54.18609 10.82083 37494 ft 402 kts 57°
2026-04-29 17:15 54.21303 10.90461 37487 ft 402 kts 57°
2026-04-29 17:15 54.23991 10.98833 37483 ft 402 kts 57°
2026-04-29 17:16 54.26654 11.07163 37476 ft 402 kts 58°
2026-04-29 17:16 54.29331 11.15575 37475 ft 402 kts 58°
2026-04-29 17:17 54.32005 11.23989 37475 ft 402 kts 58°
2026-04-29 17:17 54.34676 11.32424 37502 ft 402 kts 57°
2026-04-29 17:18 54.37339 11.40864 37494 ft 402 kts 57°
2026-04-29 17:18 54.39989 11.49313 37495 ft 402 kts 58°
2026-04-29 17:19 54.42635 11.57775 37489 ft 402 kts 58°
2026-04-29 17:19 54.45275 11.66233 37482 ft 402 kts 57°
2026-04-29 17:20 54.48011 11.74595 37482 ft 400 kts 55°
2026-04-29 17:20 54.50954 11.82721 37478 ft 400 kts 54°
2026-04-29 17:21 54.53921 11.90840 37505 ft 400 kts 54°
2026-04-29 17:21 54.56817 11.98963 37498 ft 400 kts 54°
2026-04-29 17:22 54.59693 12.07172 37494 ft 400 kts 55°
2026-04-29 17:22 54.62569 12.15385 37494 ft 400 kts 55°
2026-04-29 17:23 54.65447 12.23595 37488 ft 400 kts 54°
2026-04-29 17:23 54.68317 12.31814 37490 ft 399 kts 55°
2026-04-29 17:24 54.71176 12.40033 37488 ft 398 kts 55°
2026-04-29 17:24 54.74029 12.48253 37484 ft 398 kts 55°
2026-04-29 17:25 54.76873 12.56476 37488 ft 398 kts 55°
2026-04-29 17:25 54.79567 12.64837 37476 ft 398 kts 58°
2026-04-29 17:26 54.82025 12.73464 37474 ft 400 kts 59°